GW5460 Weather Reports


time (UTC)temp
F
wind
direction
speed
knots
gust
knots
rain 1hr
in
rain 24hr
in
rain mn
in
humidity
%
barometer
mb
20260507095519 53 276 0.0 1.7 0.00 0.00 0.00 76 1020.9
20260507094540 54 299 0.0 0.9 0.00 0.00 0.00 75 1021.0
20260507093519 54 258 0.0 1.7 0.00 0.00 0.00 76 1021.0
20260507092517 54 266 0.0 2.6 0.00 0.00 0.00 76 1021.1
20260507091517 54 225 0.0 2.6 0.00 0.00 0.00 76 1021.2
20260507090518 54 200 0.0 1.7 0.00 0.00 0.00 76 1021.3
20260507085517 54 224 0.0 1.7 0.00 0.00 0.00 77 1021.3
20260507084538 54 274 0.0 1.7 0.00 0.00 0.00 78 1021.3
20260507083518 54 245 0.9 2.6 0.00 0.00 0.00 78 1021.2
20260507082518 54 241 0.0 1.7 0.00 0.00 0.00 78 1021.2
20260507081519 54 207 0.9 3.5 0.00 0.00 0.00 79 1021.2
20260507080538 54 186 0.0 0.9 0.00 0.00 0.00 79 1021.2
20260507075558 55 243 0.9 2.6 0.00 0.00 0.00 79 1021.3
20260507074518 55 175 0.0 0.9 0.00 0.00 0.00 80 1021.2
20260507073518 55 190 0.0 1.7 0.00 0.00 0.00 80 1021.2
20260507072519 55 208 0.0 1.7 0.00 0.00 0.00 81 1021.2
20260507071538 55 227 0.0 1.7 0.00 0.00 0.00 80 1021.1
20260507070518 55 190 0.0 1.7 0.00 0.00 0.00 80 1021.1
20260507065516 55 204 0.0 1.7 0.00 0.00 0.00 80 1021.1
20260507064521 56 274 0.0 1.7 0.00 0.00 0.00 79 1021.1
20260507063520 56 189 0.9 3.5 0.00 0.00 0.00 78 1021.1
20260507062516 56 250 0.9 2.6 0.00 0.00 0.00 78 1021.1
20260507061517 57 196 0.0 2.6 0.00 0.00 0.00 78 1021.1
20260507060537 57 189 0.0 1.7 0.00 0.00 0.00 79 1021.1
20260507055517 57 215 0.0 1.7 0.00 0.00 0.00 80 1021.1
20260507054518 57 264 0.0 1.7 0.00 0.00 0.00 80 1021.0
20260507053518 58 267 0.0 1.7 0.00 0.00 0.00 79 1021.0
20260507052518 58 262 0.0 1.7 0.00 0.00 0.00 79 1021.0
20260507051518 58 331 0.0 1.7 0.00 0.00 0.00 78 1021.0
20260507050519 58 325 0.0 2.6 0.00 0.00 0.00 78 1021.0
20260507045518 58 338 0.0 1.7 0.00 0.00 0.00 78 1021.0
20260507044559 59 317 0.0 1.7 0.00 0.00 0.00 78 1021.0
20260507043520 59 330 0.0 2.6 0.00 0.00 0.00 78 1020.9
20260507042519 59 302 0.9 2.6 0.00 0.00 0.00 77 1020.8
20260507041520 60 342 0.9 3.5 0.00 0.00 0.00 77 1020.7
20260507040521 60 338 0.9 3.5 0.00 0.00 0.00 76 1020.6
20260507035519 61 319 0.9 1.7 0.00 0.00 0.00 76 1020.4
20260507034519 61 288 0.9 2.6 0.00 0.00 0.00 75 1020.3
20260507033520 62 309 0.9 2.6 0.00 0.00 0.00 75 1020.1
20260507032559 62 350 0.0 1.7 0.00 0.00 0.00 75 1020.0
20260507031517 62 357 0.0 0.9 0.00 0.00 0.00 74 1019.8
20260507030538 63 272 0.0 1.7 0.00 0.00 0.00 74 1019.8
20260507025537 63 299 0.0 2.6 0.00 0.00 0.00 74 1019.7
20260507024517 63 338 0.0 2.6 0.00 0.00 0.00 73 1019.6
20260507023517 64 238 0.0 1.7 0.00 0.00 0.00 73 1019.5
20260507022517 64 334 0.9 1.7 0.00 0.00 0.00 72 1019.5
20260507021518 65 284 0.0 0.9 0.00 0.00 0.00 72 1019.5
20260507020518 65 318 0.9 2.6 0.00 0.00 0.00 71 1019.5
20260507015520 66 322 0.9 2.6 0.00 0.00 0.00 70 1019.6
20260507014519 66 329 0.9 2.6 0.00 0.00 0.00 70 1019.6
20260507013537 67 320 0.9 2.6 0.00 0.00 0.00 71 1019.6
20260507012518 67 311 0.0 1.7 0.00 0.00 0.00 70 1019.5
20260507011519 67 322 0.9 2.6 0.00 0.00 0.00 70 1019.4
20260507010518 69 332 0.9 1.7 0.00 0.00 0.00 68 1019.4
20260507005516 70 38 0.0 1.7 0.00 0.00 0.00 67 1019.4
20260507004520 70 246 0.0 1.7 0.00 0.00 0.00 66 1019.3
20260507003516 70 212 0.9 2.6 0.00 0.00 0.00 65 1019.3
20260507002517 70 207 0.9 1.7 0.00 0.00 0.00 65 1019.3
20260507001517 69 275 0.0 0.9 0.00 0.00 0.00 67 1019.4
20260507000537 69 111 1.7 5.2 0.00 0.00 0.00 67 1019.4
20260506235536 70 118 0.9 4.3 0.00 0.00 0.00 66 1019.4
20260506234518 70 111 0.9 4.3 0.00 0.00 0.00 66 1019.4
20260506233517 70 115 1.7 4.3 0.00 0.00 0.00 65 1019.4
20260506232518 69 201 0.0 1.7 0.00 0.00 0.00 68 1019.5
20260506231518 68 164 0.9 2.6 0.00 0.00 0.00 69 1019.5
20260506230518 69 115 0.9 4.3 0.00 0.00 0.00 68 1019.7
20260506225540 68 114 0.9 4.3 0.00 0.00 0.00 69 1019.7
20260506224518 68 106 2.6 6.1 0.00 0.00 0.00 68 1019.8
20260506223540 69 114 1.7 5.2 0.00 0.00 0.00 67 1020.0
20260506222519 68 111 2.6 6.1 0.00 0.00 0.00 68 1020.0
20260506221520 67 108 1.7 5.2 0.00 0.00 0.00 70 1020.1
20260506220520 67 126 1.7 7.0 0.00 0.00 0.00 70 1020.1
20260506215517 67 166 1.7 5.2 0.00 0.00 0.00 70 1020.1
20260506214519 67 120 1.7 5.2 0.00 0.00 0.00 70 1020.0
20260506213518 67 105 1.7 5.2 0.00 0.00 0.00 71 1020.1
20260506212517 67 100 0.9 4.3 0.00 0.00 0.00 71 1020.3
20260506211517 66 130 1.7 4.3 0.00 0.00 0.00 72 1020.4
20260506210538 66 170 0.9 2.6 0.00 0.00 0.00 72 1020.5
20260506205517 66 132 1.7 7.0 0.00 0.00 0.00 72 1020.5
20260506204517 65 180 1.7 5.2 0.00 0.00 0.00 73 1020.5
20260506203518 65 121 1.7 7.0 0.00 0.00 0.00 74 1020.4
20260506202518 65 177 1.7 5.2 0.00 0.00 0.00 74 1020.5
20260506201517 64 135 2.6 8.7 0.00 0.00 0.00 75 1020.5
20260506200519 64 188 0.9 3.5 0.00 0.00 0.00 76 1020.6
20260506195519 63 144 0.9 3.5 0.00 0.00 0.00 78 1020.8
20260506194518 63 192 0.9 3.5 0.00 0.00 0.00 77 1020.8
20260506193540 64 138 0.9 4.3 0.00 0.00 0.00 76 1020.8
20260506192519 64 175 1.7 6.1 0.00 0.00 0.00 75 1020.8
20260506191518 64 167 1.7 6.1 0.00 0.00 0.00 76 1020.7
20260506190518 64 117 3.5 7.0 0.00 0.00 0.00 75 1020.7
20260506185517 63 142 1.7 6.1 0.00 0.00 0.00 77 1020.7
20260506184519 63 125 3.5 7.0 0.00 0.00 0.00 77 1020.6
20260506183517 62 134 2.6 5.2 0.00 0.00 0.00 79 1020.7
20260506182518 61 157 0.9 3.5 0.00 0.00 0.00 81 1020.7
20260506181519 61 157 1.7 5.2 0.00 0.00 0.00 80 1020.8
20260506180518 60 147 1.7 4.3 0.00 0.00 0.00 81 1020.7
20260506175619 60 130 2.6 7.0 0.00 0.00 0.00 82 1020.8
20260506174518 60 130 2.6 7.0 0.00 0.00 0.00 82 1020.7
20260506173519 59 146 1.7 4.3 0.00 0.00 0.00 83 1020.6
20260506172519 59 112 2.6 7.8 0.00 0.00 0.00 83 1020.4
20260506171519 59 148 0.9 3.5 0.00 0.00 0.00 83 1020.6
20260506170519 58 185 0.9 2.6 0.00 0.00 0.00 84 1020.7
20260506165519 58 176 0.9 3.5 0.00 0.00 0.00 84 1020.7
20260506164519 58 195 0.9 2.6 0.00 0.00 0.00 83 1020.5
20260506163539 59 167 0.9 3.5 0.00 0.00 0.00 84 1020.6
20260506162518 58 149 0.9 3.5 0.00 0.00 0.00 85 1020.5
20260506161537 58 129 1.7 5.2 0.00 0.00 0.00 85 1020.4
20260506160538 58 206 0.9 2.6 0.00 0.00 0.00 85 1020.4
20260506155517 57 144 1.7 6.1 0.00 0.00 0.00 86 1020.1
20260506154518 57 128 3.5 7.8 0.00 0.00 0.00 88 1019.6
20260506153539 56 159 1.7 4.3 0.00 0.00 0.00 90 1020.0
20260506152540 55 158 0.9 3.5 0.00 0.00 0.00 90 1020.5
20260506151538 55 156 0.9 2.6 0.00 0.00 0.00 91 1020.5
20260506150558 55 190 0.9 2.6 0.00 0.00 0.00 91 1020.5
20260506145518 55 199 0.9 3.5 0.00 0.00 0.00 90 1020.5
20260506144519 55 147 0.9 4.3 0.00 0.00 0.00 91 1020.3
20260506143520 55 178 0.0 1.7 0.00 0.00 0.00 91 1020.2
20260506142519 55 134 0.9 2.6 0.00 0.00 0.00 92 1019.8
20260506141518 55 112 1.7 4.3 0.00 0.00 0.00 92 1019.6
20260506140520 55 110 3.5 7.0 0.00 0.00 0.00 92 1019.5
20260506135541 55 108 2.6 6.1 0.00 0.00 0.00 91 1019.5
20260506134517 56 114 2.6 7.8 0.00 0.00 0.00 91 1019.5
20260506133517 56 115 2.6 6.1 0.00 0.00 0.00 92 1019.4
20260506132517 56 128 0.9 3.5 0.00 0.00 0.00 92 1019.3
20260506131537 57 122 0.9 3.5 0.00 0.00 0.00 92 1019.2
20260506130518 57 128 1.7 4.3 0.00 0.00 0.00 91 1019.1
20260506125539 57 127 0.9 3.5 0.00 0.00 0.00 89 1019.1
20260506124518 57 126 0.9 2.6 0.00 0.00 0.00 89 1019.0
20260506123518 57 143 0.0 1.7 0.00 0.00 0.00 89 1019.0
20260506122518 57 180 0.0 0.9 0.00 0.00 0.00 89 1019.1
20260506121538 57 162 0.0 0.9 0.00 0.00 0.00 89 1019.1
20260506120518 57 200 0.0 1.7 0.00 0.00 0.00 89 1019.0
20260506115518 58 186 0.0 0.9 0.00 0.00 0.00 90 1018.9
20260506114518 58 185 0.0 0.0 0.00 0.00 0.00 90 1018.7
20260506113518 58 200 0.0 0.9 0.00 0.00 0.00 90 1018.7
20260506112548 58 177 0.0 0.9 0.00 0.00 0.00 90 1018.6
20260506111519 58 193 0.0 0.9 0.00 0.00 0.00 90 1018.5
20260506110518 58 237 0.0 0.9 0.00 0.00 0.00 90 1018.4
20260506105520 58 170 0.0 0.9 0.00 0.00 0.00 90 1018.3
20260506104519 58 316 0.0 0.9 0.00 0.00 0.00 90 1018.0
20260506103520 58 291 0.0 0.9 0.00 0.00 0.00 89 1017.9
20260506102517 58 279 0.0 0.0 0.00 0.00 0.00 89 1017.8
20260506101517 58 198 0.0 0.9 0.00 0.00 0.00 88 1017.7
20260506100517 58 246 0.0 0.9 0.00 0.00 0.00 88 1017.7